Location: Ayer Observatory
(42.2600°N, 71.0700°W)
Time: 23:28:27
(UTC-04:00)

XW-2A - Pass Details

Date: 16 August 2020
Orbit: 428 x 443 km, 97.3° (Epoch: 26 September)

Event Time Altitude Azimuth Distance (km) Brightness Sun altitude
Exits shadow 21:24:47 24° 194° (SSW) 945 ? -17.4°
Maximum altitude 21:26:30 51° 260° (W) 551 ? -17.7°
Drops below altitude 10° 21:29:42 10° 338° (NNW) 1,534 ? -18.1°
Sets 21:31:46 0° 343° (NNW) 2,407 ? -18.4°
